Wind_Speed
19 17 15 14 15 14 14 13 12 12 12 11 10 10 11 12 12 11 11 11 10 9 8 7 7 8 7 6 6 5 5 4 4 4 3 3 3 2 2 3 3 3
20 18 16 14 14 14 15 15 14 13 13 12 12 11 11 11 11 12 13 12 11 10 9 8 7 8 9 8 8 7 7 6 5 5 5 4 3 3 3 4 4 4
21 19 17 14 13 13 13 14 15 14 13 13 13 12 11 10 11 12 13 12 11 10 9 9 8 9 10 10 9 8 8 7 6 5 6 5 5 5 5 5 5 5
22 19 17 14 13 13 13 14 14 14 13 13 13 13 13 12 12 12 13 13 13 11 10 10 9 9 10 10 10 9 9 8 7 6 7 7 7 7 6 6 6 5
23 21 18 16 15 15 14 14 14 13 13 13 13 13 14 14 13 12 13 13 13 12 11 10 10 10 10 11 10 9 9 8 8 8 8 8 8 8 7 6 6 6
23 22 20 17 17 16 15 14 14 13 13 13 13 14 14 14 14 13 13 12 11 11 11 10 10 9 10 11 11 11 10 9 9 9 10 9 8 8 7 7 7 7
22 21 20 18 16 16 15 13 14 14 13 13 13 14 14 13 14 13 13 12 11 11 11 11 11 11 11 12 13 13 13 12 11 11 11 10 9 9 8 8 8 8
21 20 19 18 16 15 15 14 14 14 13 13 13 13 14 14 13 13 13 13 12 12 12 12 13 13 12 12 14 14 13 12 11 11 11 10 10 10 9 8 8 8
20 19 19 18 17 15 16 15 14 14 14 14 13 12 13 14 13 12 13 14 13 13 14 14 14 14 13 14 15 14 13 12 11 11 10 10 10 10 9 9 8 9
19 18 18 17 17 16 16 16 14 13 14 14 12 11 12 12 13 12 13 14 14 14 15 15 15 15 15 14 15 14 14 13 12 12 11 11 10 10 10 9 9 9
18 18 17 17 17 16 16 16 15 14 14 13 12 12 11 11 12 12 13 14 14 14 14 15 15 15 15 15 14 14 14 13 12 12 12 11 11 11 11 10 10 10
19 18 17 17 17 16 15 15 15 14 13 13 12 12 12 11 11 12 12 14 14 14 14 15 15 15 15 15 14 13 14 13 13 13 12 12 12 12 11 11 11 10
21 18 17 17 16 16 15 14 14 14 13 13 13 12 12 12 12 12 12 13 14 14 14 15 15 15 15 16 15 14 14 14 13 13 12 12 12 12 12 12 11 11
22 20 19 18 17 16 16 14 14 14 13 13 13 13 13 13 12 12 12 13 13 14 14 14 15 15 15 16 16 15 14 13 13 13 13 13 13 13 13 12 12 11
23 22 22 21 20 19 18 17 15 14 14 13 13 13 13 13 12 12 12 12 13 14 15 15 14 15 16 16 16 15 14 13 13 13 13 13 13 13 13 13 13 13
24 24 24 23 22 21 21 20 18 16 15 14 14 14 14 14 14 13 13 12 13 14 15 15 14 15 16 16 15 15 14 13 14 15 16 15 15 15 14 14 14 13
20 22 22 22 22 21 20 20 19 18 17 16 15 14 15 16 16 15 14 13 13 13 14 14 14 15 16 16 15 15 16 15 15 16 17 17 16 15 14 14 13 13
14 15 16 18 20 20 20 20 19 19 18 18 16 14 15 15 16 16 16 15 14 14 14 14 14 15 16 15 14 15 16 16 15 15 15 16 17 16 15 14 13 13
12 12 13 14 16 17 18 18 19 19 19 19 18 16 15 15 15 16 16 17 16 15 16 15 14 16 17 16 15 16 16 17 17 16 16 17 19 19 18 17 15 15
10 10 10 10 10 11 13 15 17 18 19 19 19 19 18 17 16 15 16 17 17 17 18 17 15 17 19 19 18 18 18 19 19 18 18 18 17 18 19 18 17 16
10 9 9 9 9 10 9 9 11 15 17 17 19 19 18 18 18 17 17 19 19 19 18 15 15 19 21 20 20 20 20 19 19 18 19 18 17 18 19 19 18 17
13 11 11 10 10 12 12 10 8 9 11 12 14 15 15 15 15 13 14 15 16 18 18 15 17 20 20 19 20 20 20 18 17 18 20 20 19 19 19 20 19 18
12 12 12 11 11 12 15 14 11 10 10 10 12 12 10 11 10 8 9 10 11 12 13 14 16 19 19 19 20 19 18 17 17 17 18 18 17 16 17 18 17 18
6 8 10 11 11 13 15 16 15 14 14 13 12 11 10 8 5 5 8 10 9 10 10 11 13 15 16 17 18 18 17 16 15 13 13 13 13 13 13 12 12 15
7 8 7 6 7 10 13 14 14 13 11 9 8 10 12 9 6 6 7 6 6 6 7 6 7 9 11 12 14 15 15 14 11 10 10 10 10 9 9 7 7 11
9 8 6 5 7 8 8 9 10 8 7 6 7 9 10 9 8 7 5 2 2 2 2 2 1 4 6 7 9 10 11 9 7 6 8 9 8 7 5 3 5 8
Wind_Direction
220 224 228 231 230 231 233 234 235 233 232 230 227 229 230 229 226 221 223 227 231 238 242 248 251 242 237 241 240 240 244 247 255 266 275 283 289 290 290 298 303 309
219 223 228 232 235 239 240 239 240 240 240 238 232 230 232 232 231 228 227 231 237 243 245 252 256 246 239 240 242 242 243 247 251 255 260 262 261 267 270 274 277 278
219 222 225 229 235 240 241 242 245 245 243 241 235 231 232 234 237 236 233 234 239 242 245 251 255 250 243 241 245 249 247 250 250 250 257 258 256 262 265 270 274 273
217 221 224 227 232 238 242 244 246 246 243 241 238 234 234 238 244 245 240 239 242 244 249 252 251 249 243 241 247 253 254 256 256 259 266 265 264 267 270 273 276 278
216 221 224 227 234 239 242 242 243 243 243 243 241 239 239 243 247 246 243 242 245 247 250 252 252 248 243 242 249 256 258 259 261 269 274 273 271 271 272 275 277 281
216 221 225 228 233 237 237 237 239 240 242 244 245 244 244 247 248 245 241 241 244 245 246 248 250 248 243 244 251 257 259 259 263 272 275 272 271 270 270 273 275 280
216 220 223 224 227 230 230 232 237 241 243 246 249 250 249 249 249 247 245 245 244 245 245 247 250 248 245 249 257 261 262 261 264 271 273 268 265 265 268 267 268 277
213 215 219 220 220 222 224 227 234 240 244 248 249 251 252 252 250 246 247 248 247 247 248 248 250 249 247 252 260 263 262 259 260 266 268 265 261 263 265 264 265 272
210 213 216 218 218 220 223 225 229 234 242 247 245 246 250 253 250 245 248 252 252 252 253 251 251 249 248 254 259 261 258 254 254 258 262 261 260 261 263 263 265 268
211 213 214 216 218 220 222 224 226 230 237 242 239 239 244 249 251 247 248 254 254 253 253 252 251 250 250 253 256 256 254 253 253 255 258 259 258 260 263 264 266 267
212 213 215 216 218 220 222 223 224 225 231 234 234 236 239 242 247 247 247 249 249 248 250 253 254 254 254 254 254 254 254 254 255 257 257 257 257 259 261 263 265 266
213 213 215 216 218 220 221 222 221 221 226 229 230 234 238 238 241 243 245 247 247 246 248 253 257 258 258 257 256 255 257 257 257 258 258 257 257 257 258 261 263 265
215 214 216 216 217 219 219 220 221 223 225 228 230 234 237 238 238 241 245 248 249 249 249 254 259 260 259 260 259 257 258 259 258 257 257 257 258 258 258 260 260 263
219 217 218 217 217 219 220 220 221 225 228 231 233 235 238 240 240 243 246 247 247 249 250 254 260 262 260 260 262 261 258 258 257 256 255 257 260 261 261 260 260 262
223 222 223 223 223 224 225 224 222 226 230 234 236 238 239 241 243 246 248 247 248 252 255 256 257 259 260 261 263 264 261 257 255 255 256 259 263 264 261 259 259 261
225 226 227 227 227 227 229 228 227 228 231 234 238 239 239 242 247 250 249 248 250 252 254 255 253 255 261 262 261 262 263 259 258 261 263 264 266 266 264 261 259 260
225 227 228 229 229 230 231 232 233 234 236 239 241 242 245 250 253 253 253 252 253 252 252 252 251 257 264 264 259 260 263 262 263 268 270 269 268 265 263 263 263 263
222 225 227 229 231 231 232 235 238 239 241 245 245 245 250 253 255 256 257 259 258 256 256 254 255 264 270 267 261 261 262 262 263 265 266 267 267 266 265 264 264 266
215 220 225 229 233 235 236 238 240 241 244 247 249 250 251 253 255 256 258 261 261 259 260 261 261 268 272 270 265 262 260 260 260 258 261 264 265 265 266 266 266 267
211 215 222 230 235 237 239 240 241 244 247 250 253 255 256 257 258 257 259 264 266 265 266 267 264 267 271 272 270 266 262 261 260 261 264 264 260 260 263 266 267 268
197 205 219 236 244 243 240 239 244 251 254 255 256 256 258 261 262 262 264 268 269 268 268 267 264 268 273 273 270 268 265 262 261 261 262 261 258 261 266 269 272 273
204 207 214 228 242 248 242 230 231 249 259 267 267 262 257 259 261 263 267 271 273 271 268 264 264 269 271 269 267 266 264 260 256 254 254 256 258 263 267 271 274 274
220 220 219 224 235 248 247 239 233 237 248 266 276 272 261 254 255 259 262 265 274 277 270 263 265 269 268 265 264 263 262 259 256 254 254 255 257 261 265 268 271 272
239 241 234 231 237 248 253 250 245 241 244 252 260 268 271 265 251 251 260 263 268 272 267 261 263 266 265 265 264 262 260 258 256 256 256 257 258 261 264 267 267 267
245 254 251 248 253 255 254 256 255 252 251 249 248 260 272 277 266 252 254 259 257 254 253 253 261 268 270 270 269 267 262 258 256 257 257 257 259 262 268 268 256 259
232 243 259 280 277 261 251 254 255 246 231 226 232 241 249 256 258 251 236 221 215 208 198 201 272 299 298 292 289 282 269 257 250 250 247 249 252 252 255 255 248 258
Height
858 859 860 861 862 863 864 864 865 866 867 868 869 870 870 871 872 873 874 874 875 875 876 876 877 877 878 878 879 879 879 879 880 880 879 880 880 880 880 880 879 879
857 858 859 860 861 862 862 863 864 865 866 867 868 869 869 870 871 872 873 873 874 875 875 875 876 876 877 877 878 878 878 878 879 879 878 878 879 879 878 878 878 878
856 857 858 859 860 861 861 862 863 864 865 866 867 868 869 869 870 871 872 872 873 874 874 875 875 875 876 876 877 877 877 877 878 878 878 877 877 877 877 877 877 877
854 856 857 858 859 860 860 861 862 863 864 865 866 867 868 868 869 870 871 871 872 873 873 874 874 875 875 875 876 876 876 877 877 877 877 876 876 876 876 876 876 876
852 854 856 857 858 859 860 860 861 862 863 864 865 866 866 867 868 869 870 870 871 872 872 873 873 873 874 874 875 875 875 876 876 876 876 875 875 875 875 875 875 875
851 852 854 855 856 858 859 859 860 861 862 863 864 865 865 866 867 868 869 869 870 871 871 871 872 872 873 873 874 874 874 875 875 875 875 874 875 875 874 874 874 874
849 850 852 854 855 856 857 858 859 860 861 862 862 863 864 865 866 866 867 868 869 869 869 870 870 871 872 872 872 873 873 873 873 873 873 873 873 873 873 873 873 873
847 848 850 852 853 854 855 857 858 858 859 860 861 862 863 863 864 865 866 866 867 868 868 869 869 869 870 871 871 871 872 872 872 872 872 872 872 872 872 872 872 871
845 846 848 849 851 852 853 855 856 857 858 859 860 861 861 862 863 863 864 865 865 866 866 867 868 868 869 869 869 870 870 871 871 871 871 871 871 871 871 871 871 870
843 845 846 848 849 850 851 853 854 855 856 857 858 859 860 860 861 862 862 863 863 864 865 865 866 866 867 867 868 868 868 869 869 869 869 869 869 869 869 869 869 869
842 843 845 846 847 849 850 851 852 853 854 855 856 857 858 859 859 860 861 861 862 862 863 863 864 865 865 866 866 867 867 867 867 867 867 868 868 868 867 868 867 867
840 841 843 844 846 847 848 849 851 852 853 854 855 855 856 857 858 858 859 859 860 861 862 862 863 863 864 864 865 865 866 866 866 866 866 866 866 866 866 866 866 866
837 839 841 842 844 845 847 848 849 850 851 852 853 854 855 855 856 857 857 858 859 859 860 861 861 862 862 862 863 864 864 864 865 865 865 865 865 865 865 864 864 864
835 837 839 840 842 843 845 846 847 848 849 851 852 852 853 854 855 855 856 856 857 858 858 859 859 860 860 861 861 862 862 863 863 863 863 863 863 863 863 863 863 863
833 835 836 838 839 840 842 844 845 846 847 849 850 851 852 853 853 854 855 855 855 856 856 857 857 858 858 859 859 860 860 861 861 861 861 862 861 861 861 861 861 861
831 832 834 835 837 838 840 841 843 844 845 846 847 849 850 851 852 852 853 853 854 854 855 855 855 855 856 856 857 858 858 859 859 859 859 860 859 859 859 859 859 859
829 830 832 834 835 837 838 839 841 842 843 844 845 847 848 849 850 851 851 852 852 852 853 853 853 853 853 854 855 855 856 857 857 857 857 857 858 858 857 857 857 857
828 830 831 833 834 835 837 838 839 841 842 843 844 845 846 847 848 849 849 850 850 851 851 851 851 851 851 852 853 853 854 854 854 855 855 855 856 856 856 855 855 855
827 828 830 831 832 834 835 836 838 839 840 841 842 843 844 845 846 846 847 848 848 848 848 849 849 849 849 850 851 851 851 852 852 852 853 853 852 853 853 853 852 852
825 827 829 831 832 833 834 834 836 837 838 839 840 841 842 842 843 844 845 845 846 846 846 846 847 847 847 848 848 849 849 849 849 850 850 850 850 850 850 850 849 849
823 825 827 829 831 833 833 833 834 835 836 838 838 839 840 840 840 841 842 843 843 844 844 845 845 845 845 846 846 847 847 847 847 848 848 847 847 847 847 846 846 846
821 822 824 826 829 831 832 831 831 832 834 836 837 838 838 838 838 839 839 840 841 841 842 843 842 842 843 843 844 845 845 845 845 846 846 845 845 845 844 844 844 845
822 822 822 823 825 828 830 830 829 829 831 833 836 838 837 836 836 837 837 837 838 839 840 840 840 840 841 841 842 842 843 843 843 843 843 843 843 843 842 842 842 842
823 824 823 821 822 825 828 829 828 828 828 829 832 837 838 838 836 835 835 835 835 837 838 838 838 838 839 839 839 840 841 841 841 842 842 842 841 841 841 841 840 840
821 825 823 821 822 824 825 826 828 828 828 828 830 833 838 839 836 833 833 834 834 835 836 837 837 837 838 838 838 839 839 839 840 840 840 840 840 840 840 840 839 838
819 822 821 820 823 825 824 825 827 828 827 827 828 830 835 839 837 834 833 834 835 835 834 835 836 837 838 838 838 838 838 838 839 839 839 839 839 839 839 839 838 838